Station DULM5 - 9099064 - Duluth, MN Image indicating link to RSS feed of recent meteorological observations for station DULM5


Conditions at DULM5 as of
(5:00 am CDT)
1000 GMT on 06/23/2024:
     

Click on the graph icon in the table below to see a time series plot of the last five days of that observation.

5-day plot - Wind Direction Wind Direction (WDIR):SSW ( 200 deg true )
5-day plot - Wind Speed Wind Speed (WSPD): 4.1 kts
5-day plot - Wind Gust Wind Gust (GST): 6.0 kts
5-day plot - Atmospheric Pressure Atmospheric Pressure (PRES):29.78 in
5-day plot - Pressure Tendency Pressure Tendency (PTDY):-0.01 in ( Falling )
5-day plot - Water Temperature Water Temperature (WTMP): 61.0 °F
5-day plot - Wind Speed at 10 Meters Wind Speed at 10 meters (WSPD10M): 3.9 kts
5-day plot - Wind Speed at 20 Meters Wind Speed at 20 meters (WSPD20M): 3.9 kts
5-day plot -  Wind Speed, Wind Gust and Atmospheric Pressure Combined plot of Wind Speed, Gust, and Air Pressure
NOS Water Level Observation Network Water Level
Previous observations
TIME
(CDT)
5-day plot - Wind Direction
WDIR
 
5-day plot - Wind Speed
WSPD
kts
5-day plot - Wind Gust
GST
kts
5-day plot - Wave Height
WVHT
ft
5-day plot - Dominant Wave Period
DPD
sec
5-day plot - Average Wave Period
APD
sec
5-day plot - Mean Wave Direction
MWD
 
5-day plot - Atmospheric Pressure
PRES
in
5-day plot - Pressure Tendency
PTDY
in
5-day plot - Air Temperature
ATMP
°F
5-day plot - Water Temperature
WTMP
°F
5-day plot - Dew Point
DEWP
°F
5-day plot - Salinity
SAL
psu
5-day plot - Visibility
VIS
nmi
5-day plot - Tide (above MLLW)
TIDE
ft
2024-06-23 04:54 am SW 4.1 8.0----29.78-- 61.0----
2024-06-23 04:48 amSSW 4.1 7.0----29.78- 55.9 61.0 46.6---
2024-06-23 04:42 am S 5.1 7.0----29.77- 55.9 61.0 47.3---
2024-06-23 04:36 am S 4.1 5.1----29.77- 55.2 61.0 47.3---
2024-06-23 04:30 amSSE 2.9 4.1----29.77- 55.0 61.0 47.5---
2024-06-23 04:24 amSSE 2.9 4.1----29.78- 54.9 61.0 46.8---
2024-06-23 04:18 am- 0.0 2.9----29.77- 54.5 61.0 46.9---
2024-06-23 04:12 am- 0.0 1.0----29.77- 54.7 61.0 46.6---
2024-06-23 04:06 amWNW 1.0 5.1----29.77- 55.2 61.0 47.1---
2024-06-23 04:00 am SW 5.1 7.0----29.78- 54.5 61.0 47.7---
2024-06-23 03:54 amSSW 5.1 7.0----29.78- 54.3 61.0 47.8---
2024-06-23 03:48 am S 4.1 5.1----29.77- 54.3 61.0 48.4---
2024-06-23 03:42 am S 4.1 5.1----29.77- 54.1 61.0 48.2---
2024-06-23 03:36 am SE 2.9 4.1----29.77- 53.6 61.0 47.7---
2024-06-23 03:30 am SE 1.9 1.9----29.77- 53.6 61.0 47.8---
2024-06-23 03:24 amESE 1.9 2.9----29.77- 53.6 61.0 47.7---
2024-06-23 03:18 am- 0.0 1.0----29.77- 53.8 61.0 47.8---
2024-06-23 03:12 amSSW 1.0 1.9----29.78- 54.1 61.0 48.0---
2024-06-23 03:06 amSSW 1.9 2.9----29.78- 53.8 61.0 48.6---
2024-06-23 03:00 am SW 2.9 4.1----29.78-0.02 53.8 61.0 48.6---
2024-06-23 02:54 amWSW 2.9 2.9----29.78- 53.8 61.0 48.4---
2024-06-23 02:48 amWSW 1.9 2.9----29.78- 53.8 61.0 48.4---
2024-06-23 02:42 amSSW 1.0 1.0----29.78- 53.2 60.8 47.8---
2024-06-23 02:36 am SW 1.0 2.9----29.78- 53.2 61.0 48.0---
2024-06-23 02:30 am SW 1.9 2.9----29.79- 53.4 61.0 48.6---
2024-06-23 02:24 am SW 1.9 4.1----29.78- 53.1 61.0 48.6---
2024-06-23 02:18 amSSW 2.9 4.1----29.78- 52.9 61.0 48.4---
2024-06-23 02:12 am SW 2.9 5.1----29.78- 53.1 61.0 48.4---
2024-06-23 02:06 am SW 4.1 6.0----29.79- 53.6 61.0 48.2---
2024-06-23 02:00 amWSW 5.1 5.1----29.79-0.02 54.5 61.0 47.8---
2024-06-23 01:54 amSSW 2.9 4.1----29.78- 54.7 61.0 47.8---
2024-06-23 01:48 am SW 1.9 2.9----29.78- 54.5 61.0 48.2---
2024-06-23 01:42 amWSW 1.9 2.9----29.78- 54.1 61.0 48.0---
2024-06-23 01:36 amSSW 1.0 1.9----29.78- 54.1 61.0 48.2---
2024-06-23 01:30 am S 1.9 1.9----29.78- 54.1 60.8 47.8---
2024-06-23 01:24 amSSE 1.9 2.9----29.78- 54.1 60.8 47.7---
2024-06-23 01:18 am S 1.0 2.9----29.79- 53.6 60.8 47.1---
2024-06-23 01:12 amSSE 2.9 2.9----29.79- 53.6 60.8 46.8---
2024-06-23 01:06 am- 0.0 1.0----29.79- 53.2 60.8 46.8---
2024-06-23 01:00 am--------- 53.1 60.8 46.6---
2024-06-23 12:54 am--------- 53.4 60.8 46.8---
2024-06-23 12:48 am- 0.0 1.9----29.80- 54.1 60.8 46.6---
2024-06-23 12:42 am W 1.9 2.9----29.80- 54.5 60.8 47.1---
2024-06-23 12:36 amWSW 1.9 2.9----29.81- 54.3 60.8 46.9---
2024-06-23 12:30 am-------29.80-- 60.8----
2024-06-23 12:24 am-------29.80-- 60.8----
2024-06-23 12:18 am W 1.0 1.9----29.80- 53.6 61.0 47.3---
2024-06-23 12:12 amWSW 1.0 1.9----29.80- 53.6 61.0 46.9---
2024-06-23 12:06 amWNW 1.0 1.9----29.80- 53.4 61.0 46.4---
2024-06-23 12:00 am NW 1.0 4.1----29.80+0.03 53.6 61.0 46.8---
2024-06-22 11:54 pm- 0.0 1.0----29.80- 53.4 61.0 47.3---
2024-06-22 11:48 pm- 0.0 0.0----29.80- 53.2 61.0 46.9---
2024-06-22 11:42 pm- 0.0 0.0----29.80- 53.4 61.0 47.1---
2024-06-22 11:36 pm- 0.0 2.9----29.81- 54.0 61.0 46.9---
2024-06-22 11:30 pm W 2.9 2.9----29.81- 54.3 61.0 47.5---
2024-06-22 11:24 pm W 1.0 1.9----29.81- 54.1 61.0 46.9---
2024-06-22 11:18 pm NW 1.0 1.9----29.81-- 61.0----
2024-06-22 11:12 pmNNE 1.0 1.9----29.81-- 61.0----
2024-06-22 11:06 pm N 1.0 1.9----29.80-- 61.0----
2024-06-22 11:00 pmNNE 1.0 2.9----29.80+0.00 54.0 61.0 46.6---
2024-06-22 10:54 pm- 0.0 1.0----29.80- 54.0 61.0 46.0---
2024-06-22 10:48 pm- 0.0 1.9----29.80- 54.5 61.0 46.0---
2024-06-22 10:42 pm N 1.9 1.9----29.80- 54.5 61.0 46.2---
2024-06-22 10:36 pm N 1.0 1.9----29.80- 54.5 61.0 46.2---
2024-06-22 10:30 pm N 1.0 1.9----29.81- 54.7 61.0 46.6---
2024-06-22 10:24 pm N 1.0 2.9----29.81- 54.3 61.0 46.4---
2024-06-22 10:18 pm NE 1.9 2.9----29.81- 54.3 61.0 46.8---
2024-06-22 10:12 pmNNW 2.9 6.0----29.81- 55.2 61.0 47.1---
2024-06-22 10:06 pm NW 4.1 5.1----29.81- 54.7 61.0 46.8---
2024-06-22 10:00 pm-------29.80+0.01- 61.0----
2024-06-22 09:54 pm-------29.78-- 61.0----
2024-06-22 09:48 pm-------29.80-- 61.0----
2024-06-22 09:42 pm-------29.80-- 61.0----
2024-06-22 09:36 pm-------29.81-- 61.0----
2024-06-22 09:30 pmNNW 6.0 11.1----29.81- 53.6 61.0 47.5---
2024-06-22 09:24 pmNNW 6.0 8.9----29.80- 53.8 61.0 49.5---
2024-06-22 09:18 pm N 4.1 7.0----29.78- 53.8 61.0 49.8---
2024-06-22 09:12 pmNNE 4.1 7.0----29.78- 54.0 61.0 50.2---
2024-06-22 09:06 pm NE 6.0 8.9----29.78- 54.1 61.0 50.5---
2024-06-22 09:00 pmNNE 1.9 5.1----29.78-0.02- 61.0----
2024-06-22 08:54 pmNNE 4.1 7.0----29.78-- 61.0----
2024-06-22 08:48 pmNNE 4.1 6.0----29.77- 54.5 61.0 50.7---
2024-06-22 08:42 pm NE 4.1 7.0----29.78- 54.7 61.0 50.7---
2024-06-22 08:36 pm NE 4.1 6.0----29.78- 54.7 61.0 50.7---
2024-06-22 08:30 pm NE 2.9 7.0----29.78-------
2024-06-22 08:24 pmENE 2.9 7.0----29.78-------
2024-06-22 08:18 pm NE 2.9 7.0----29.79- 55.2 61.0 50.7---
2024-06-22 08:12 pm E 4.1 6.0----29.79- 55.2 61.0 50.4---
2024-06-22 08:06 pmENE 2.9 4.1----29.80- 55.6 61.0 49.8---
2024-06-22 08:00 pmENE 1.9 7.0----29.80+0.00 55.6 61.0 48.9---
2024-06-22 07:54 pm NE 4.1 7.0----29.80- 55.4 61.0 48.2---
2024-06-22 07:48 pmNNE 4.1 6.0----29.80- 55.8 61.2 48.2---
2024-06-22 07:42 pm N 4.1 6.0----29.80- 55.9 61.0 48.2---
2024-06-22 07:36 pm N 4.1 6.0----29.80- 56.3 61.0 48.7---
2024-06-22 07:30 pm N 1.0 4.1----29.80- 56.3 61.0 49.5---
2024-06-22 07:24 pm N 4.1 6.0----29.80- 56.1 61.0 50.2---
2024-06-22 07:18 pmNNW 1.0 2.9----29.80- 55.9 61.2 50.2---
2024-06-22 07:12 pm N 1.9 6.0----29.80- 56.1 61.2 49.8---
2024-06-22 07:06 pm N 4.1 8.9----29.79- 56.5 61.0 49.8---
2024-06-22 07:00 pm N 5.1 11.1----29.79-0.04 56.7 61.0 50.2---
2024-06-22 06:54 pm N 5.1 8.0----29.79- 56.3 61.0 51.1---
2024-06-22 06:48 pm N 2.9 6.0------- 61.0----
2024-06-22 06:42 pm N 5.1 7.0------- 61.0----
2024-06-22 06:36 pm N 4.1 8.0------- 61.0----
2024-06-22 06:30 pm N 5.1 8.0----29.79- 55.4 61.0 50.9---
2024-06-22 06:24 pm N 5.1 7.0----29.78- 54.9 61.0 50.5---
2024-06-22 06:18 pm N 6.0 8.0----29.78- 54.7 61.0 50.5---
2024-06-22 06:12 pm N 5.1 8.0----29.78- 54.5 61.0 50.5---
2024-06-22 06:06 pmNNE 6.0 8.0----29.79- 54.3 61.0 50.4---
2024-06-22 06:00 pmNNE 2.9 8.9----29.80-0.02- 61.0----
2024-06-22 05:54 pm NE 5.1 8.9----29.80-- 61.0----
2024-06-22 05:48 pm NE 6.0 8.9----29.79- 54.7 61.0 49.5---
2024-06-22 05:42 pm NE 4.1 8.0----29.79- 54.9 61.0 49.6---
2024-06-22 05:36 pm NE 6.0 11.1----29.79- 54.5 61.0 48.9---
2024-06-22 05:30 pm NE 7.0 13.0----29.79- 54.5 61.0 49.3---
2024-06-22 05:24 pmNNE 6.0 11.1----29.79- 54.3 61.0 49.5---
2024-06-22 05:18 pmNNE 5.1 9.9----29.79- 54.1 61.0 49.3---
2024-06-22 05:12 pmNNE 4.1 9.9----29.79- 54.0 61.0 48.9---
2024-06-22 05:06 pmNNE 7.0 8.9----29.79- 54.0 61.0 48.7---
2024-06-22 05:00 pmNNE 5.1 13.0----29.79-0.03 54.0 61.0 48.7---
2024-06-22 04:54 pmNNE 8.0 15.0----29.78- 53.8 61.0 48.6---
2024-06-22 04:48 pmNNE 6.0 11.1----29.78- 53.8 61.0 48.7---
2024-06-22 04:42 pmNNE 7.0 11.1----29.80- 53.4 61.0 48.4---
2024-06-22 04:36 pmNNE 5.1 9.9----29.81- 53.4 61.0 48.2---
2024-06-22 04:30 pm NE 6.0 9.9----29.82-- 61.0----
2024-06-22 04:24 pm NE 5.1 8.0----29.82-- 61.0----
2024-06-22 04:18 pm NE 4.1 8.9----29.82- 53.6 61.0 48.2---
2024-06-22 04:12 pm NE 4.1 8.0----29.83- 54.0 61.0 48.4---
2024-06-22 04:06 pm NE 5.1 11.1----29.83- 54.3 61.0 48.6---
2024-06-22 04:00 pm NE 6.0 13.0----29.83+0.00 54.7 61.0 48.7---
2024-06-22 03:54 pm NE 8.0 15.0----29.82- 54.9 61.0 48.7---
2024-06-22 03:48 pm NE 9.9 15.9----29.82-- 61.0----
2024-06-22 03:42 pm NE 8.9 17.1----29.81-- 61.0----
2024-06-22 03:36 pm NE 8.9 15.9----29.80-- 61.0----
2024-06-22 03:30 pm--------- 55.2 61.0 49.5---
2024-06-22 03:24 pm--------- 55.0 61.0 49.6---
2024-06-22 03:18 pm NE 13.0 20.0----29.81-- 61.0----
2024-06-22 03:12 pmNNE 12.0 20.0----29.81-- 61.0----
2024-06-22 03:06 pmNNE 11.1 19.0----29.81-- 61.0----
2024-06-22 03:00 pmNNE 8.9 19.0----29.81-0.03 55.0 61.0 50.0---
2024-06-22 02:54 pm NE 12.0 19.0----29.81- 55.2 61.0 50.4---
2024-06-22 02:48 pm NE 12.0 18.1----29.82- 55.0 61.0 50.4---
2024-06-22 02:42 pmNNE 13.0 18.1----29.82- 55.2 61.0 50.5---
2024-06-22 02:36 pm NE 11.1 19.0----29.82- 55.2 61.0 50.5---
2024-06-22 02:30 pmNNE 12.0 19.0----29.81- 55.0 61.0 50.2---
2024-06-22 02:24 pm NE 12.0 18.1----29.82- 55.4 61.0 50.2---
2024-06-22 02:18 pmNNE 12.0 18.1----29.82- 55.8 61.0 50.4---
2024-06-22 02:12 pmNNE 13.0 18.1----29.82- 55.8 61.0 50.2---
2024-06-22 02:06 pm NE 12.0 19.0----29.82- 55.8 61.0 50.0---
2024-06-22 02:00 pm NE 11.1 17.1----29.82-0.02 55.8 61.0 50.0---
2024-06-22 01:54 pm NE 12.0 15.9----29.83- 55.6 61.0 50.0---
2024-06-22 01:48 pm NE 8.9 17.1----29.83- 55.6 61.0 50.2---
2024-06-22 01:42 pm NE 8.9 17.1----29.83- 55.6 61.0 50.2---
2024-06-22 01:36 pm NE 9.9 18.1----29.82- 55.8 61.0 50.4---
2024-06-22 01:30 pm NE 8.0 15.9----29.82- 55.8 61.0 50.9---
2024-06-22 01:24 pm NE 8.0 14.0----29.82- 55.8 61.0 51.4---
2024-06-22 01:18 pm NE 8.0 14.0----29.82- 55.6- 51.4---
2024-06-22 01:12 pm NE 6.0 13.0----29.82- 55.4- 51.6---
2024-06-22 01:06 pm NE 8.0 15.0----29.82- 55.2- 51.6---
2024-06-22 01:00 pm NE 9.9 15.9----29.82-0.04 54.9 61.0 51.4---
2024-06-22 12:54 pm NE 9.9 15.0----29.82- 54.3 61.0 51.1---
2024-06-22 12:48 pm NE 12.0 18.1----29.82- 54.0 61.0 50.7---
2024-06-22 12:42 pm NE 11.1 17.1----29.83- 54.1 61.0 51.1---
2024-06-22 12:36 pm NE 11.1 17.1----29.83- 54.1 61.0 51.3---
2024-06-22 12:30 pm NE 11.1 17.1----29.83- 54.7 61.0 52.0---
2024-06-22 12:24 pm NE 9.9 17.1----29.83- 54.9 61.0 52.3---
2024-06-22 12:18 pm NE 11.1 15.9----29.83- 54.9 61.0 52.5---
2024-06-22 12:12 pm NE 9.9 15.9----29.83- 55.2 61.0 52.9---
2024-06-22 12:06 pm NE 9.9 17.1----29.84- 55.4 61.0 53.2---
2024-06-22 12:00 pm NE 9.9 19.0----29.84-0.02 55.2 61.0 53.1---
2024-06-22 11:54 am NE 9.9 17.1----29.84- 55.0 61.0 53.1---
2024-06-22 11:48 am NE 8.0 15.0----29.84- 55.2 61.0 53.2---
2024-06-22 11:42 am NE 8.9 15.9----29.84- 55.2 61.0 53.2---
2024-06-22 11:36 am NE 8.9 15.9----29.84- 55.6 61.0 53.6---
2024-06-22 11:30 am NE 9.9 15.0----29.84- 55.8 61.0 53.8---
2024-06-22 11:24 am NE 8.9 15.0----29.84- 56.1 61.0 54.1---
2024-06-22 11:18 am NE 11.1 18.1----29.84- 56.7 61.0 54.9---
2024-06-22 11:12 am NE 9.9 17.1----29.84- 56.8 61.0 55.0---
2024-06-22 11:06 am NE 9.9 15.9----29.84- 56.8 61.0 55.0---
2024-06-22 11:00 am NE 9.9 15.9----29.84-0.04 56.7 61.0 54.9---
2024-06-22 10:54 am NE 9.9 15.9----29.85- 57.0 61.0 55.2---
2024-06-22 10:48 am NE 8.0 14.0----29.85-- 61.0----
2024-06-22 10:42 am NE 8.0 15.0----29.85-- 61.0----
2024-06-22 10:36 am NE 8.9 15.9----29.85-- 61.0----
2024-06-22 10:30 am NE 8.0 15.0----29.85- 56.7 61.0 54.7---
2024-06-22 10:24 am NE 7.0 14.0----29.85- 57.0 61.0 55.0---
2024-06-22 10:18 am NE 6.0 9.9----29.85- 57.2 61.0 55.2---
2024-06-22 10:12 am NE 6.0 15.9----29.85- 57.4 61.0 55.4---
2024-06-22 10:06 am NE 8.0 14.0----29.85- 57.2 61.0 55.2---
2024-06-22 10:00 am NE 7.0 14.0----29.86-0.04 57.2 61.0 55.0---
2024-06-22 09:54 am NE 7.0 14.0----29.86- 57.2 61.0 55.0---
2024-06-22 09:48 am NE 8.9 14.0----29.86- 56.7 61.0 54.5---
2024-06-22 09:42 am NE 8.9 15.0----29.85- 56.1 61.2 53.8---
2024-06-22 09:36 am NE 8.9 17.1----29.85- 55.9 61.2 53.4---
2024-06-22 09:30 amNNE 12.0 18.1----29.85- 55.8 61.2 53.1---
2024-06-22 09:24 am NE 13.0 22.0----29.86- 55.9 61.2 53.1---
2024-06-22 09:18 am--------- 55.9 61.2 52.7---
2024-06-22 09:12 am--------- 56.1 61.2 52.7---
2024-06-22 09:06 am--------- 56.3 61.2 52.5---
2024-06-22 09:00 am NE 8.0 14.0----29.87-0.04- 61.2----
2024-06-22 08:54 am NE 8.0 13.0----29.87-- 61.2----
2024-06-22 08:48 am NE 8.0 14.0----29.87- 56.8 61.2 52.7---
2024-06-22 08:42 am NE 8.0 17.1----29.87- 57.0 61.2 52.5---
2024-06-22 08:36 am NE 8.9 15.9----29.88- 57.4 61.2 52.3---
2024-06-22 08:30 am NE 9.9 15.9----29.88- 57.7 61.2 52.2---
2024-06-22 08:24 am NE 8.9 18.1----29.88- 58.1 61.2 52.2---
2024-06-22 08:18 am NE 9.9 17.1----29.88- 58.1 61.2 52.0---
2024-06-22 08:12 amNNE 8.0 15.0----29.88- 57.7 61.2 51.4---
2024-06-22 08:06 amNNE 9.9 17.1----29.88- 57.6 61.2 50.9---
2024-06-22 08:00 amNNE 9.9 15.9----29.88-0.03 57.2- 50.2---
2024-06-22 07:54 am NE 9.9 19.0----29.88- 57.2- 49.1---
2024-06-22 07:48 am NE 11.1 18.1----29.88-------
2024-06-22 07:42 am NE 12.0 19.0----29.88-------
2024-06-22 07:36 amNNE 8.9 18.1----29.88-------
2024-06-22 07:30 amNNE 8.0 14.0------- 61.2----
2024-06-22 07:24 amNNE 5.1 11.1------- 61.2----
2024-06-22 07:18 amNNE 7.0 12.0----29.89- 55.4 61.2 50.0---
2024-06-22 07:12 amNNE 7.0 12.0----29.89- 55.0 61.2 49.8---
2024-06-22 07:06 am NE 6.0 12.0----29.89- 54.7 61.2 49.3---
2024-06-22 07:00 am-------29.90-0.04- 61.2----
2024-06-22 06:54 am-------29.90-- 61.2----
2024-06-22 06:48 am NE 9.9 13.0----29.90- 54.7 61.2 49.5---
2024-06-22 06:42 amNNE 8.0 13.0----29.90- 54.7 61.2 49.5---
2024-06-22 06:36 amNNE 5.1 11.1----29.90- 54.9 61.3 49.8---
2024-06-22 06:30 amNNE 5.1 9.9----29.91- 54.7 61.3 49.8---
2024-06-22 06:24 amNNE 4.1 9.9----29.91- 54.5 61.3 49.8---
2024-06-22 06:18 amNNE 6.0 12.0----29.91-- 61.3----
2024-06-22 06:12 am NE 8.0 12.0----29.91-- 61.3----
2024-06-22 06:06 am NE 6.0 11.1----29.91-- 61.3----
2024-06-22 06:00 am NE 6.0 9.9----29.91- 54.9 61.3 49.1---
2024-06-22 05:54 am NE 7.0 11.1----29.91- 55.2 61.3 49.1---
2024-06-22 05:48 am NE 6.0 8.9----29.91- 55.4 61.3 49.5---
2024-06-22 05:42 am NE 6.0 11.1----29.91- 55.2 61.3 49.5---
2024-06-22 05:36 am NE 7.0 12.0----29.91- 55.2 61.3 49.5---
2024-06-22 05:30 am NE 6.0 11.1----29.90- 55.4- 49.8---
2024-06-22 05:24 am NE 6.0 9.9----29.90- 55.6- 50.0---
2024-06-22 05:18 am NE 6.0 9.9----29.90- 55.6 61.2 49.8---
2024-06-22 05:12 am NE 5.1 9.9----29.90- 55.8 61.2 50.0---
2024-06-22 05:06 am NE 5.1 9.9----29.90- 55.6 61.2 50.0---
2024-06-22 05:00 am NE 5.1 9.9----29.91-0.07 55.6 61.2 50.0---
2024-06-22 04:54 am NE 5.1 9.9----29.91- 55.8 61.2 50.2---